[[{"header":{"parameterUnit":"m.s-1","parameterCategory":1,"la1":30.2991,"la2":30.254,"lo1":-89.0895,"lo2":-89.0444,"dy":0.0017,"dx":0.0017,"nx":28,"ny":28,"refTime":"2025-04-14T21:00:00:Z","depth":0,"parameterNumber":2,"parameterNumberName":"U-component_of_WINDS"},"data":[0,0,0,0,0,0,0,0,0,0,0,0,0,0,0,0,0,0,0,0,0,0,0,0,0,0,0,0,0,0,0,0,0,0,0,0,0,0,0,0,0,0,0,0,0,0,0,0,0,0,0,0,0,0,0,0,0,0,4.6678,4.6679,0,4.6796,4.6797,4.6799,4.677,4.6768,4.6765,4.6763,4.6885,4.689,4.6895,0,0,0,0,0,0,0,0,0,0,0,0,0,4.6429,4.6433,4.6678,4.6679,4.6681,4.6796,4.6797,4.6799,4.677,4.6768,4.6765,4.6762,4.6883,4.6889,4.6896,0,0,0,0,0,0,0,0,0,0,0,0,0,4.6541,4.6435,4.6677,4.668,4.6682,4.6795,4.6797,4.6799,4.6771,4.6767,4.6764,4.6761,4.6881,4.6889,4.6896,4.7015,0,0,4.6921,4.6925,0,0,0,0,0,0,0,0,4.6534,4.655,4.6678,4.668,4.6682,4.6765,4.6754,4.6872,4.6772,4.6737,4.6763,4.6759,4.6847,4.6858,4.6888,4.702,4.7026,4.6922,4.6927,4.693,4.6932,0,0,0,0,0,0,0,4.6527,4.6545,4.6724,4.668,4.6683,4.6676,4.6688,4.6776,4.681,4.674,4.6738,4.6752,4.6848,4.688,4.689,4.7027,4.6922,4.6929,4.6934,4.6937,4.7265,4.7269,0,0,0,0,0,0,4.6517,4.6538,4.6721,4.6728,4.6598,4.6683,4.6697,4.6742,4.6809,4.6816,4.6755,4.6751,4.6868,4.6881,4.6895,4.7038,4.693,4.6938,4.6942,4.7261,4.7266,4.727,0,0,0,0,0,0,4.6512,4.6534,4.6716,4.6633,4.6655,4.6691,4.6742,4.6746,4.6778,4.6821,4.6827,4.6782,4.6866,4.6883,4.6985,4.7042,4.6941,4.6948,4.7256,4.7262,4.7268,4.7326,0,0,0,0,0,0,4.6505,4.6532,4.6577,4.6634,4.666,4.6805,4.6745,4.6751,4.6792,4.6787,4.6847,4.6854,4.6864,4.6974,4.6993,4.7051,4.6955,4.7251,4.7259,4.7266,4.732,4.7333,4.7345,0,0,0,0,0,4.6496,4.6588,4.6579,4.6601,4.6717,4.6808,4.6823,4.6833,4.6796,4.6842,4.687,4.6852,4.7033,4.6984,4.7006,4.7068,4.7248,4.7257,4.7265,4.7314,4.7331,4.7345,0,0,0,0,0,0,4.6537,4.6596,4.6586,4.67,4.6749,4.6803,4.6861,4.685,4.6911,4.6904,4.6914,4.6928,4.7033,4.706,4.7005,4.7187,4.7135,4.7149,4.7164,4.7181,4.7194,4.7185,4.6961,0,0,0,0,0,4.6559,4.6628,4.6676,4.6771,4.6796,4.6825,4.6864,4.6868,4.692,4.694,4.6975,4.7026,4.7095,4.7139,4.7204,4.7324,4.7337,4.7377,4.739,4.74,4.7412,4.7478,4.7497,4.7299,4.7299,4.7298,0,0,4.6605,4.6646,4.6689,4.678,4.6819,4.689,4.6842,4.6919,4.6973,4.6952,4.7051,4.7079,4.7136,4.7248,4.7299,4.7274,4.747,4.7411,4.7419,4.7425,4.7489,4.7508,4.7524,4.7305,4.7303,4.7303,0,0,4.6726,4.6764,4.6848,4.6888,4.6947,4.6966,4.6986,4.7042,4.706,4.7159,4.7146,4.7209,4.7327,4.7369,4.7405,4.7544,4.753,4.7565,4.7633,4.7698,4.7713,4.7727,4.7777,4.7795,4.7577,4.7577,4.7577,0,4.6776,4.6883,4.6893,4.6972,4.7013,4.6998,4.7084,4.7122,4.72,4.7229,4.7201,4.7349,4.7386,4.7508,4.7542,4.7572,4.7596,4.7558,4.771,4.7724,4.7737,4.7785,4.7804,4.7581,4.7581,4.758,4.758,0,4.6942,4.7017,4.7078,4.7154,4.7202,4.7284,4.7306,4.7354,4.7354,4.7376,4.7478,4.7523,4.7598,4.7627,4.7627,4.775,4.7733,4.7707,4.7656,4.776,4.7805,4.7824,4.7587,4.7585,4.7584,4.7583,0,0,4.7091,4.7172,4.7195,4.7229,4.7294,4.7352,4.7435,4.7508,4.7549,4.7603,4.7673,4.7773,4.7751,4.7793,4.7798,4.7855,4.7963,4.7823,4.7824,4.7847,4.8101,4.812,4.8141,4.7955,4.7958,4.7961,4.8097,0,4.7218,4.7363,4.7374,4.7504,4.7574,4.7562,4.7634,4.7682,4.7705,4.7767,4.7793,4.7864,4.7828,4.7854,4.7909,4.7938,4.8014,4.7929,4.802,4.8023,4.8006,4.8165,4.8184,4.831,4.8114,4.8118,4.812,0,4.7386,4.7446,4.7583,4.764,4.7669,4.7733,4.7802,4.7862,4.7917,4.793,4.7977,4.7976,4.8061,4.8007,4.8125,4.8066,4.8105,4.8125,4.813,4.8139,4.8077,4.8178,4.8351,4.8369,4.8148,4.8145,4.8143,0,4.7481,4.7596,4.7694,4.7724,4.7792,4.7838,4.7868,4.792,4.7964,4.8024,4.8053,4.8122,4.816,4.8215,4.8232,4.8191,4.835,4.8297,4.8364,4.8363,4.8397,4.8395,4.8578,4.8422,4.8422,4.8421,4.8421,0,4.7622,4.7706,4.7738,4.7797,4.7892,4.7905,4.7999,4.8027,4.8074,4.8139,4.8133,4.8195,4.8214,4.828,4.8294,4.839,4.8407,4.842,4.8423,4.8421,4.8419,4.8446,4.8438,4.8426,4.8425,4.8424,4.8423,0,4.7744,4.7768,4.7874,4.793,4.7947,4.8014,4.8063,4.8121,4.8143,4.8226,4.8247,4.8282,4.8359,4.8382,4.8474,4.8484,4.8597,4.8592,4.8578,4.8578,4.8644,4.8637,4.8851,4.888,4.8704,4.8706,4.8707,0,4.7832,4.7897,4.7961,4.8005,4.8038,4.8108,4.8153,4.8169,4.8216,4.8284,4.8334,4.841,4.8472,4.8596,4.863,4.8701,4.8697,4.8767,4.8708,4.8704,4.8699,4.8695,4.8702,4.8778,4.878,4.8782,4.8783,0,4.7987,4.7996,4.806,4.8131,4.8184,4.824,4.8293,4.833,4.8354,4.8407,4.8486,4.8534,4.8629,4.8704,4.8777,4.8809,4.8801,4.8802,4.8821,4.8819,4.8809,4.8815,4.8609,4.8796,4.8795,4.8794,4.8793,4.8793,4.8095,4.8152,4.8207,4.828,4.8322,4.8372,4.843,4.846,4.8526,4.8604,4.861,4.8695,4.875,4.8847,4.8883,4.895,4.893,4.8957,4.8964,4.8971,4.8976,4.8798,4.8963,4.8963,4.8963,4.8962,4.8962,0,4.8249,4.8284,4.8351,4.8426,4.8484,4.8471,4.853,4.8579,4.8654,4.8706,4.8767,4.8858,4.8932,4.8973,4.9047,4.9093,4.9091,4.9112,4.9109,4.9116,4.899,4.8966,4.9113,4.9112,4.9112,4.9112,4.9112,4.9112,4.8336,4.8433,4.8449,4.8567,4.8601,4.8685,4.872,4.8767,4.8808,4.891,4.8972,4.8998,4.9045,4.9123,4.9191,4.9201,4.9228,4.9252,4.9259,4.9141,4.9125,4.911,4.9088,4.9257,4.9258,4.938,4.9381,4.9382]},{"header":{"parameterUnit":"m.s-1","parameterCategory":1,"la1":30.2991,"la2":30.254,"lo1":-89.0895,"lo2":-89.0444,"dy":0.0017,"dx":0.0017,"nx":28,"ny":28,"refTime":"2025-04-14T21:00:00:Z","depth":0,"parameterNumber":3,"parameterNumberName":"V-component_of_WINDS"},"data":[0,0,0,0,0,0,0,0,0,0,0,0,0,0,0,0,0,0,0,0,0,0,0,0,0,0,0,0,0,0,0,0,0,0,0,0,0,0,0,0,0,0,0,0,0,0,0,0,0,0,0,0,0,0,0,0,0,0,-1.5198,-1.5198,0,-1.5225,-1.5225,-1.5226,-1.5213,-1.5213,-1.5212,-1.5212,-1.524,-1.5241,-1.5243,0,0,0,0,0,0,0,0,0,0,0,0,0,-1.5138,-1.5139,-1.5198,-1.5198,-1.5199,-1.5225,-1.5225,-1.5226,-1.5214,-1.5213,-1.5212,-1.5211,-1.524,-1.5241,-1.5243,0,0,0,0,0,0,0,0,0,0,0,0,0,-1.5164,-1.5139,-1.5198,-1.5196,-1.5196,-1.5225,-1.5225,-1.5226,-1.5214,-1.5213,-1.5212,-1.5211,-1.5239,-1.5241,-1.5243,-1.5276,0,0,-1.525,-1.525,0,0,0,0,0,0,0,0,-1.5163,-1.5166,-1.5196,-1.5196,-1.5196,-1.5215,-1.5215,-1.5243,-1.5214,-1.5207,-1.5211,-1.521,-1.5233,-1.5235,-1.5242,-1.5278,-1.5279,-1.525,-1.5251,-1.5252,-1.5253,0,0,0,0,0,0,0,-1.5161,-1.5165,-1.5209,-1.5196,-1.5196,-1.5194,-1.5197,-1.522,-1.5225,-1.5208,-1.5207,-1.521,-1.5233,-1.524,-1.5243,-1.5279,-1.525,-1.5252,-1.5253,-1.5254,-1.5346,-1.5347,0,0,0,0,0,0,-1.5159,-1.5164,-1.5208,-1.5209,-1.5177,-1.5196,-1.5199,-1.521,-1.5225,-1.5226,-1.5211,-1.5209,-1.5237,-1.5241,-1.5244,-1.5286,-1.5252,-1.5254,-1.5255,-1.5344,-1.5346,-1.5347,0,0,0,0,0,0,-1.5158,-1.5163,-1.5207,-1.5186,-1.5192,-1.5198,-1.521,-1.5211,-1.5219,-1.5227,-1.5228,-1.5218,-1.5237,-1.5241,-1.5269,-1.5286,-1.5255,-1.5257,-1.5343,-1.5345,-1.5347,-1.5368,0,0,0,0,0,0,-1.5156,-1.5163,-1.5175,-1.5187,-1.5193,-1.5231,-1.5211,-1.5212,-1.5222,-1.5221,-1.5234,-1.5236,-1.5236,-1.5266,-1.5271,-1.5289,-1.5258,-1.5342,-1.5344,-1.5346,-1.5366,-1.537,-1.5374,0,0,0,0,0,-1.5154,-1.5179,-1.5175,-1.5181,-1.5208,-1.5231,-1.5235,-1.5235,-1.5224,-1.5237,-1.5242,-1.5235,-1.5283,-1.5269,-1.5274,-1.5293,-1.534,-1.5343,-1.5346,-1.5364,-1.5369,-1.5374,0,0,0,0,0,0,-1.5169,-1.5181,-1.5176,-1.5206,-1.5218,-1.5229,-1.5245,-1.5241,-1.5256,-1.5254,-1.5253,-1.5257,-1.5286,-1.5292,-1.5275,-1.5327,-1.531,-1.5314,-1.5322,-1.5327,-1.5331,-1.533,-1.526,0,0,0,0,0,-1.5175,-1.5193,-1.5203,-1.5228,-1.5234,-1.5239,-1.5249,-1.5248,-1.526,-1.5265,-1.5273,-1.5286,-1.5304,-1.5316,-1.5333,-1.5366,-1.537,-1.5382,-1.5386,-1.539,-1.5393,-1.5414,-1.542,-1.5356,-1.5356,-1.5356,0,0,-1.5189,-1.5198,-1.5209,-1.5231,-1.524,-1.526,-1.5243,-1.5263,-1.5278,-1.5268,-1.5296,-1.5302,-1.5316,-1.5347,-1.5362,-1.5354,-1.5412,-1.5393,-1.5396,-1.5398,-1.5417,-1.5423,-1.5429,-1.5358,-1.5358,-1.5357,0,0,-1.5225,-1.5233,-1.5256,-1.5266,-1.528,-1.5283,-1.5288,-1.5301,-1.5305,-1.5332,-1.5326,-1.5344,-1.5374,-1.5385,-1.5395,-1.5437,-1.5432,-1.5442,-1.5465,-1.5485,-1.549,-1.5494,-1.5511,-1.5517,-1.5446,-1.5446,-1.5446,0,-1.5241,-1.5269,-1.5269,-1.529,-1.5301,-1.5293,-1.5318,-1.5327,-1.5346,-1.5354,-1.5344,-1.5384,-1.5393,-1.5428,-1.5439,-1.5446,-1.5454,-1.5441,-1.5489,-1.5494,-1.5498,-1.5514,-1.552,-1.5447,-1.5447,-1.5447,-1.5447,0,-1.5289,-1.5309,-1.5326,-1.5345,-1.5358,-1.538,-1.5384,-1.5397,-1.5395,-1.54,-1.5429,-1.5439,-1.546,-1.5468,-1.5466,-1.5503,-1.5498,-1.5489,-1.5472,-1.5505,-1.5521,-1.5527,-1.5449,-1.5449,-1.5448,-1.5448,0,0,-1.5335,-1.5354,-1.5361,-1.537,-1.5386,-1.5401,-1.5424,-1.5444,-1.5456,-1.547,-1.549,-1.5517,-1.551,-1.5521,-1.552,-1.5538,-1.5573,-1.5527,-1.5527,-1.5537,-1.5617,-1.5625,-1.5632,-1.5569,-1.5571,-1.5571,-1.5617,0,-1.5373,-1.5414,-1.5414,-1.5452,-1.5471,-1.5465,-1.5485,-1.5498,-1.5503,-1.5521,-1.5527,-1.5547,-1.5534,-1.5541,-1.5558,-1.5565,-1.559,-1.5562,-1.559,-1.5591,-1.5588,-1.564,-1.5648,-1.569,-1.5623,-1.5624,-1.5624,0,-1.5423,-1.5439,-1.5479,-1.5494,-1.5502,-1.552,-1.5539,-1.5556,-1.557,-1.5573,-1.5586,-1.5584,-1.5609,-1.5591,-1.5627,-1.5608,-1.562,-1.5625,-1.5627,-1.5631,-1.5611,-1.5647,-1.5704,-1.5711,-1.5633,-1.5633,-1.5632,0,-1.5455,-1.5486,-1.5515,-1.5523,-1.554,-1.5553,-1.5561,-1.5575,-1.5587,-1.5604,-1.5613,-1.5632,-1.5643,-1.5659,-1.5663,-1.5649,-1.57,-1.5681,-1.5704,-1.5704,-1.5716,-1.5715,-1.5777,-1.5721,-1.5721,-1.572,-1.572,0,-1.5499,-1.5524,-1.553,-1.5547,-1.5575,-1.5576,-1.5605,-1.5612,-1.5624,-1.5644,-1.5639,-1.5658,-1.5661,-1.5681,-1.5684,-1.5714,-1.5719,-1.5723,-1.5724,-1.5724,-1.5724,-1.5733,-1.5731,-1.5722,-1.5722,-1.5721,-1.5721,0,-1.554,-1.5544,-1.5575,-1.5589,-1.5593,-1.5614,-1.5626,-1.5644,-1.5649,-1.5674,-1.568,-1.5688,-1.5712,-1.5717,-1.5744,-1.5746,-1.5783,-1.578,-1.5779,-1.5779,-1.5802,-1.5801,-1.5873,-1.5883,-1.5819,-1.5819,-1.582,0,-1.5568,-1.5587,-1.5604,-1.5617,-1.5625,-1.5646,-1.5659,-1.5661,-1.5675,-1.5694,-1.571,-1.5733,-1.5751,-1.5789,-1.5798,-1.582,-1.5819,-1.5843,-1.5822,-1.5823,-1.5822,-1.5821,-1.5824,-1.5847,-1.5848,-1.5848,-1.5849,0,-1.5619,-1.562,-1.5639,-1.5659,-1.5675,-1.5691,-1.5706,-1.5717,-1.5721,-1.5737,-1.5761,-1.5776,-1.5805,-1.5828,-1.585,-1.5859,-1.5856,-1.5855,-1.5862,-1.5863,-1.5862,-1.5865,-1.5791,-1.5854,-1.5853,-1.5853,-1.5852,-1.5852,-1.5656,-1.5673,-1.5688,-1.571,-1.5721,-1.5736,-1.5754,-1.5761,-1.5781,-1.5805,-1.5805,-1.5832,-1.5848,-1.5877,-1.5888,-1.591,-1.5902,-1.5912,-1.5914,-1.5917,-1.592,-1.5858,-1.5913,-1.5913,-1.5913,-1.5913,-1.5913,0,-1.5708,-1.5717,-1.5737,-1.5759,-1.5776,-1.577,-1.5787,-1.5803,-1.5826,-1.5841,-1.586,-1.5888,-1.5912,-1.5923,-1.5947,-1.5962,-1.5961,-1.5968,-1.5968,-1.5971,-1.5924,-1.5917,-1.5969,-1.5969,-1.5969,-1.5969,-1.5969,-1.5969,-1.5737,-1.5767,-1.5771,-1.5808,-1.5817,-1.5843,-1.5854,-1.5868,-1.588,-1.5912,-1.5931,-1.5938,-1.5953,-1.5977,-1.5999,-1.6002,-1.6012,-1.6021,-1.6023,-1.5979,-1.5974,-1.5968,-1.5962,-1.6022,-1.6022,-1.6068,-1.6068,-1.6069]}]]